sat.trackr.live / text

‹ back to catalog

2025-274G

NORAD 66656 · 2025-274G

PAYLOAD ACTIVE UNKNOWN

§ Identity

Operator
Country
SKOR
Launch date
2025-11-26
Launch site
NSC
Launch vehicle
Mass (kg)
RCS (m²)

External: N2YO · Heavens-Above · Gunter

§ Orbital elements

Epoch: 2026-09-18T06:28:14.183040Z

Period
96.41 min
Inclination
97.7481°
Eccentricity
0.0014970
Mean motion
14.93692814 rev/d
Perigee alt
576.0 km
Apogee alt
596.9 km
Semi-major
6,964.6 km
B*
1.6469e-4
RAAN
189.1754°
Arg perigee
52.2550°
Mean anomaly
308.0023°
Rev number
4,411

§ Raw data

2025-274G1 66656U 25274G   26261.26960860  .00001688  00000+0  16469-3 0  99942 66656  97.7481 189.1754 0014970  52.2550 308.0023 14.93692814 44115

JSON: /api/v1/satellites/66656 · /tle

For live sub-satellite position, see the globe view (requires WebGL).

§ Visibility from observer

Set your observer location to see the next 7 days of passes ≥ 10°. The values pass through the URL so the page stays shareable.

No JS? Fill the form by hand. The geolocation button needs JavaScript.